User: anonymous   Login
Location: Unspecified
(0.0000°N, 0.0000°E)
Time: 16:28:41
(UTC+00:00)
Language:

FORTE - Orbit

View from above orbital plane
View from above orbital plane
View from above satellite
View from above satellite

Ground track
Ground track

The orbit data is extracted from the following two-line orbital elements,

1 24920U 97047A   17204.89275177 -.00000015 +00000-0 +17910-4 0  9993
2 24920 069.9542 141.0063 0021989 014.3456 345.8285 14.26247092035078
Epoch (UTC): 23 July 2017 21:25:33
Eccentricity: 0.0021989
inclination: 69.9542°
perigee height: 788 km
apogee height: 820 km
right ascension of ascending node: 141.0063°
argument of perigee: 14.3456°
revolutions per day: 14.26247092
mean anomaly at epoch: 345.8285°
orbit number at epoch: 3507

The dashed part of the orbit path shows where the satellite is in the earth's shadow,  

DLR